,,,PA_Meas_PMT16A,,PR_Meas_QMR101_102,,RH_Meas_QMH101,,SR_Meas_QMS101,,TA_Meas_QMH101,,GenWind,,GenWind,
date,time,status,PA,status,PR,status,RH,status,SR,status,TA,status,DirAvg,status,SpdAvg,
2012-05-30, 00:00:05,VALID,1003.63,VALID,0,VALID,92.5307,VALID,0.0815089,VALID,24.6361,VALID,341,VALID,0,
2012-05-30, 00:01:05,VALID,1003.6,VALID,0,VALID,92.5688,VALID,0.0815089,VALID,24.6556,VALID,341,VALID,0,
2012-05-30, 00:02:05,VALID,1003.58,VALID,0,VALID,92.5841,VALID,0.0815089,VALID,24.6361,VALID,341,VALID,0,
2012-05-30, 00:03:05,VALID,1003.55,VALID,0,VALID,92.5002,VALID,0.0815089,VALID,24.6166,VALID,341,VALID,0,
2012-05-30, 00:04:05,VALID,1003.58,VALID,0,VALID,92.462,VALID,0,VALID,24.5972,VALID,341,VALID,0,
2012-05-30, 00:05:05,VALID,1003.55,VALID,0,VALID,92.5231,VALID,0,VALID,24.5972,VALID,341,VALID,0,
2012-05-30, 00:06:05,VALID,1003.57,VALID,0,VALID,92.5993,VALID,0,VALID,24.5953,VALID,341,VALID,0,
2012-05-30, 00:07:05,VALID,1003.59,VALID,0,VALID,92.5917,VALID,0.0815089,VALID,24.6166,VALID,341,VALID,0,
2012-05-30, 00:08:05,VALID,1003.61,VALID,0,VALID,92.5993,VALID,0,VALID,24.6148,VALID,341,VALID,0,
2012-05-30, 00:09:05,VALID,1003.6,VALID,0,VALID,92.6756,VALID,0,VALID,24.6361,VALID,341,VALID,0,
2012-05-30, 00:10:05,VALID,1003.64,VALID,0,VALID,92.7672,VALID,0.0815089,VALID,24.6556,VALID,341,VALID,0,
2012-05-30, 00:11:05,VALID,1003.65,VALID,0,VALID,92.7062,VALID,0,VALID,24.6556,VALID,341,VALID,0,
2012-05-30, 00:12:05,VALID,1003.64,VALID,0,VALID,92.7596,VALID,0,VALID,24.6556,VALID,341,VALID,0,
2012-05-30, 00:13:05,VALID,1003.63,VALID,0,VALID,92.7672,VALID,0,VALID,24.6945,VALID,341,VALID,0,
2012-05-30, 00:14:05,VALID,1003.6,VALID,0,VALID,92.7367,VALID,0,VALID,24.675,VALID,341,VALID,0,
2012-05-30, 00:15:05,VALID,1003.58,VALID,0,VALID,92.7596,VALID,0,VALID,24.6945,VALID,341,VALID,0,
2012-05-30, 00:16:05,VALID,1003.57,VALID,0,VALID,92.7748,VALID,0,VALID,24.714,VALID,341,VALID,0,
2012-05-30, 00:17:05,VALID,1003.56,VALID,0,VALID,92.6146,VALID,0,VALID,24.6964,VALID,341,VALID,0,
2012-05-30, 00:18:05,VALID,1003.57,VALID,0,VALID,92.5078,VALID,0,VALID,24.675,VALID,341,VALID,0,
2012-05-30, 00:19:05,VALID,1003.51,VALID,0,VALID,92.546,VALID,0,VALID,24.6556,VALID,341,VALID,0,
2012-05-30, 00:20:05,VALID,1003.49,VALID,0,VALID,92.5307,VALID,0,VALID,24.6556,VALID,341,VALID,0,
2012-05-30, 00:21:05,VALID,1003.44,VALID,0,VALID,92.4925,VALID,0,VALID,24.6361,VALID,341,VALID,0,
2012-05-30, 00:22:05,VALID,1003.44,VALID,0,VALID,92.5765,VALID,0,VALID,24.6556,VALID,341,VALID,0,
2012-05-30, 00:23:05,VALID,1003.41,VALID,0,VALID,92.5688,VALID,0,VALID,24.6556,VALID,341,VALID,0,
2012-05-30, 00:24:05,VALID,1003.41,VALID,0,VALID,92.546,VALID,0,VALID,24.6556,VALID,341,VALID,0,
2012-05-30, 00:25:05,VALID,1003.41,VALID,0,VALID,92.5993,VALID,0,VALID,24.6361,VALID,341,VALID,0,
2012-05-30, 00:26:05,VALID,1003.4,VALID,0,VALID,92.5688,VALID,0,VALID,24.6556,VALID,341,VALID,0,
2012-05-30, 00:27:05,VALID,1003.42,VALID,0,VALID,92.5917,VALID,0,VALID,24.6574,VALID,341,VALID,0,
2012-05-30, 00:28:05,VALID,1003.43,VALID,0,VALID,92.6299,VALID,0,VALID,24.6769,VALID,341,VALID,0,
2012-05-30, 00:29:05,VALID,1003.4,VALID,0,VALID,92.5307,VALID,0,VALID,24.675,VALID,341,VALID,0,
2012-05-30, 00:30:05,VALID,1003.4,VALID,0,VALID,92.3857,VALID,0,VALID,24.6556,VALID,341,VALID,0,
2012-05-30, 00:31:05,VALID,1003.37,VALID,0,VALID,92.3857,VALID,0,VALID,24.6361,VALID,341,VALID,0,
2012-05-30, 00:32:05,VALID,1003.35,VALID,0,VALID,92.3934,VALID,0,VALID,24.6361,VALID,341,VALID,0,
2012-05-30, 00:33:05,VALID,1003.34,VALID,0,VALID,92.3629,VALID,0,VALID,24.6166,VALID,341,VALID,0,
2012-05-30, 00:34:05,VALID,1003.34,VALID,0,VALID,92.3323,VALID,0,VALID,24.6185,VALID,341,VALID,0,
2012-05-30, 00:35:05,VALID,1003.29,VALID,0,VALID,92.3781,VALID,0,VALID,24.5777,VALID,341,VALID,0,
2012-05-30, 00:36:05,VALID,1003.28,VALID,0,VALID,92.3857,VALID,0,VALID,24.5777,VALID,341,VALID,0,
2012-05-30, 00:37:05,VALID,1003.28,VALID,0,VALID,92.4773,VALID,0,VALID,24.5388,VALID,341,VALID,0,
2012-05-30, 00:38:05,VALID,1003.28,VALID,0,VALID,92.5536,VALID,0,VALID,24.5193,VALID,341,VALID,0,
2012-05-30, 00:39:05,VALID,1003.26,VALID,0,VALID,92.6299,VALID,0,VALID,24.5193,VALID,341,VALID,0,
2012-05-30, 00:40:05,VALID,1003.26,VALID,0,VALID,92.6909,VALID,0,VALID,24.4998,VALID,341,VALID,0,
2012-05-30, 00:41:05,VALID,1003.25,VALID,0,VALID,92.813,VALID,0,VALID,24.4998,VALID,341,VALID,0,
2012-05-30, 00:42:05,VALID,1003.23,VALID,0,VALID,92.8511,VALID,0,VALID,24.4998,VALID,341,VALID,0,
2012-05-30, 00:43:05,VALID,1003.22,VALID,0,VALID,92.8969,VALID,0,VALID,24.4998,VALID,341,VALID,0,
2012-05-30, 00:44:05,VALID,1003.25,VALID,0,VALID,92.8435,VALID,0,VALID,24.5212,VALID,341,VALID,0,
2012-05-30, 00:45:05,VALID,1003.23,VALID,0,VALID,92.8435,VALID,0,VALID,24.4998,VALID,341,VALID,0,
2012-05-30, 00:46:05,VALID,1003.21,VALID,0,VALID,92.7901,VALID,0,VALID,24.4822,VALID,341,VALID,0,
2012-05-30, 00:47:05,VALID,1003.19,VALID,0,VALID,92.7901,VALID,0,VALID,24.4414,VALID,341,VALID,0,
2012-05-30, 00:48:05,VALID,1003.2,VALID,0,VALID,92.7824,VALID,0,VALID,24.422,VALID,341,VALID,0,
2012-05-30, 00:49:05,VALID,1003.17,VALID,0,VALID,92.7672,VALID,0,VALID,24.4025,VALID,341,VALID,0,
2012-05-30, 00:50:05,VALID,1003.14,VALID,0,VALID,92.8053,VALID,0,VALID,24.4043,VALID,341,VALID,0,
2012-05-30, 00:51:05,VALID,1003.12,VALID,0,VALID,92.8358,VALID,0,VALID,24.3636,VALID,341,VALID,0,
2012-05-30, 00:52:05,VALID,1003.08,VALID,0,VALID,92.8587,VALID,0,VALID,24.3636,VALID,341,VALID,0,
2012-05-30, 00:53:05,VALID,1003.08,VALID,0,VALID,92.9426,VALID,0,VALID,24.3636,VALID,341,VALID,0,
2012-05-30, 00:54:05,VALID,1003.06,VALID,0,VALID,92.9961,VALID,0,VALID,24.3636,VALID,341,VALID,0,
2012-05-30, 00:55:05,VALID,1003.04,VALID,0,VALID,92.9655,VALID,0,VALID,24.3654,VALID,341,VALID,0,
2012-05-30, 00:56:05,VALID,1003.01,VALID,0,VALID,92.9655,VALID,0,VALID,24.3459,VALID,341,VALID,0,
2012-05-30, 00:57:05,VALID,1003.03,VALID,0,VALID,93.0647,VALID,0,VALID,24.3246,VALID,341,VALID,0,
2012-05-30, 00:58:05,VALID,1003.06,VALID,0,VALID,93.1105,VALID,0,VALID,24.3441,VALID,341,VALID,0,
2012-05-30, 00:59:05,VALID,1003.02,VALID,0,VALID,93.1486,VALID,0,VALID,24.3246,VALID,341,VALID,0,
2012-05-30, 01:00:05,VALID,1003.02,VALID,0,VALID,93.2402,VALID,0,VALID,24.3441,VALID,341,VALID,0,
2012-05-30, 01:01:05,VALID,1002.99,VALID,0,VALID,93.2325,VALID,0,VALID,24.3441,VALID,341,VALID,0,
2012-05-30, 01:02:05,VALID,1002.97,VALID,0,VALID,93.2402,VALID,0,VALID,24.3246,VALID,341,VALID,0,
2012-05-30, 01:03:05,VALID,1002.97,VALID,0,VALID,93.2554,VALID,0,VALID,24.2839,VALID,341,VALID,0,
2012-05-30, 01:04:05,VALID,1002.96,VALID,0,VALID,93.2173,VALID,0,VALID,24.307,VALID,341,VALID,0,
2012-05-30, 01:05:05,VALID,1002.97,VALID,0,VALID,93.2249,VALID,0,VALID,24.2468,VALID,341,VALID,0,
2012-05-30, 01:06:05,VALID,1002.96,VALID,0,VALID,93.2402,VALID,0,VALID,24.2468,VALID,341,VALID,0,
2012-05-30, 01:07:05,VALID,1002.96,VALID,0,VALID,93.2554,VALID,0,VALID,24.2486,VALID,341,VALID,0,
2012-05-30, 01:08:05,VALID,1002.93,VALID,0,VALID,93.3088,VALID,0,VALID,24.2273,VALID,341,VALID,0,
2012-05-30, 01:09:05,VALID,1002.96,VALID,0,VALID,93.347,VALID,0,VALID,24.2078,VALID,341,VALID,0,
2012-05-30, 01:10:05,VALID,1002.93,VALID,0,VALID,93.3851,VALID,0,VALID,24.2078,VALID,341,VALID,0,
2012-05-30, 01:11:05,VALID,1002.91,VALID,0,VALID,93.4385,VALID,0,VALID,24.2291,VALID,341,VALID,0,
2012-05-30, 01:12:05,VALID,1002.89,VALID,0,VALID,93.5148,VALID,0,VALID,24.2078,VALID,341,VALID,0,
2012-05-30, 01:13:05,VALID,1002.9,VALID,0,VALID,93.5835,VALID,0,VALID,24.2078,VALID,341,VALID,0,
2012-05-30, 01:14:05,VALID,1002.88,VALID,0,VALID,93.5911,VALID,0,VALID,24.2078,VALID,341,VALID,0,
2012-05-30, 01:15:05,VALID,1002.88,VALID,0,VALID,93.5606,VALID,0,VALID,24.1884,VALID,341,VALID,0,
2012-05-30, 01:16:05,VALID,1002.91,VALID,0,VALID,93.5758,VALID,0,VALID,24.1884,VALID,341,VALID,0,
2012-05-30, 01:17:05,VALID,1002.91,VALID,0,VALID,93.6292,VALID,0,VALID,24.2097,VALID,341,VALID,0,
2012-05-30, 01:18:05,VALID,1002.87,VALID,0,VALID,93.6445,VALID,0,VALID,24.1884,VALID,341,VALID,0,
2012-05-30, 01:19:05,VALID,1002.86,VALID,0,VALID,93.6674,VALID,0,VALID,24.1884,VALID,341,VALID,0,
2012-05-30, 01:20:05,VALID,1002.86,VALID,0,VALID,93.6445,VALID,0,VALID,24.1689,VALID,341,VALID,0,
2012-05-30, 01:21:05,VALID,1002.83,VALID,0,VALID,93.6521,VALID,0,VALID,24.1902,VALID,341,VALID,0,
2012-05-30, 01:22:05,VALID,1002.84,VALID,0,VALID,93.6674,VALID,0,VALID,24.13,VALID,341,VALID,0,
2012-05-30, 01:23:05,VALID,1002.82,VALID,0,VALID,93.6445,VALID,0,VALID,24.1513,VALID,341,VALID,0,
2012-05-30, 01:24:05,VALID,1002.78,VALID,0,VALID,93.614,VALID,0,VALID,24.13,VALID,341,VALID,0,
2012-05-30, 01:25:05,VALID,1002.76,VALID,0,VALID,93.614,VALID,0,VALID,24.091,VALID,341,VALID,0,
2012-05-30, 01:26:05,VALID,1002.74,VALID,0,VALID,93.6292,VALID,0,VALID,24.091,VALID,341,VALID,0,
2012-05-30, 01:27:05,VALID,1002.71,VALID,0,VALID,93.7132,VALID,0,VALID,24.1123,VALID,341,VALID,0,
2012-05-30, 01:28:05,VALID,1002.67,VALID,0,VALID,93.7589,VALID,0.0815089,VALID,24.091,VALID,341,VALID,0,
2012-05-30, 01:29:05,VALID,1002.68,VALID,0,VALID,93.7971,VALID,0,VALID,24.091,VALID,341,VALID,0,
2012-05-30, 01:30:05,VALID,1002.68,VALID,0,VALID,93.8505,VALID,0,VALID,24.091,VALID,341,VALID,0,
2012-05-30, 01:31:04,VALID,1002.68,VALID,0,VALID,93.8734,VALID,0,VALID,24.091,VALID,341,VALID,0,
2012-05-30, 01:32:04,VALID,1002.65,VALID,0,VALID,93.8581,VALID,0,VALID,24.1105,VALID,341,VALID,0,
2012-05-30, 01:33:04,VALID,1002.66,VALID,0,VALID,93.8123,VALID,0,VALID,24.0697,VALID,341,VALID,0,
2012-05-30, 01:34:04,VALID,1002.65,VALID,0,VALID,93.7742,VALID,0,VALID,24.091,VALID,341,VALID,0,
2012-05-30, 01:35:04,VALID,1002.64,VALID,0,VALID,93.7895,VALID,0,VALID,24.0716,VALID,341,VALID,0,
2012-05-30, 01:36:04,VALID,1002.58,VALID,0,VALID,93.7666,VALID,0,VALID,24.0503,VALID,341,VALID,0,
2012-05-30, 01:37:04,VALID,1002.6,VALID,0,VALID,93.7361,VALID,0.0815089,VALID,24.0521,VALID,341,VALID,0,
2012-05-30, 01:38:04,VALID,1002.56,VALID,0,VALID,93.6826,VALID,0.0815089,VALID,24.0132,VALID,341,VALID,0,
2012-05-30, 01:39:04,VALID,1002.54,VALID,0,VALID,93.6445,VALID,0,VALID,24.0345,VALID,341,VALID,0,
2012-05-30, 01:40:04,VALID,1002.58,VALID,0,VALID,93.7284,VALID,0,VALID,24.0132,VALID,341,VALID,0,
2012-05-30, 01:41:04,VALID,1002.58,VALID,0,VALID,93.7818,VALID,0,VALID,24.0132,VALID,341,VALID,0,
2012-05-30, 01:42:04,VALID,1002.56,VALID,0,VALID,93.8352,VALID,0,VALID,24.0132,VALID,341,VALID,0,
2012-05-30, 01:43:04,VALID,1002.59,VALID,0,VALID,93.8429,VALID,0,VALID,24.0326,VALID,341,VALID,0,
2012-05-30, 01:44:04,VALID,1002.59,VALID,0,VALID,93.9268,VALID,0.0815089,VALID,24.0521,VALID,341,VALID,0,
2012-05-30, 01:45:04,VALID,1002.57,VALID,0,VALID,94.0031,VALID,0,VALID,24.0503,VALID,346,VALID,0.722266,
2012-05-30, 01:46:04,VALID,1002.56,VALID,0,VALID,94.0641,VALID,0.0815089,VALID,24.0697,VALID,346,VALID,0.600391,
2012-05-30, 01:47:04,VALID,1002.56,VALID,0,VALID,94.0565,VALID,0,VALID,24.0716,VALID,346,VALID,0.385938,
2012-05-30, 01:48:04,VALID,1002.54,VALID,0,VALID,94.087,VALID,0,VALID,24.091,VALID,346,VALID,0.381641,
2012-05-30, 01:49:04,VALID,1002.53,VALID,0,VALID,94.1404,VALID,0.0815089,VALID,24.1105,VALID,346,VALID,0.375781,
2012-05-30, 01:50:04,VALID,1002.53,VALID,0,VALID,94.1404,VALID,0,VALID,24.13,VALID,346,VALID,0.360547,
2012-05-30, 01:51:04,VALID,1002.55,VALID,0,VALID,94.1404,VALID,0,VALID,24.13,VALID,346,VALID,0.368359,
2012-05-30, 01:52:04,VALID,1002.57,VALID,0,VALID,94.0946,VALID,0,VALID,24.13,VALID,346,VALID,0.232031,
2012-05-30, 01:53:04,VALID,1002.61,VALID,0,VALID,94.0946,VALID,0,VALID,24.1105,VALID,346,VALID,0.254687,
2012-05-30, 01:54:04,VALID,1002.59,VALID,0,VALID,94.1022,VALID,0,VALID,24.13,VALID,346,VALID,0.0449219,
2012-05-30, 01:55:04,VALID,1002.6,VALID,0,VALID,94.1022,VALID,0,VALID,24.13,VALID,346,VALID,0,
2012-05-30, 01:56:04,VALID,1002.62,VALID,0,VALID,94.2548,VALID,0.0815089,VALID,24.1476,VALID,346,VALID,0,
2012-05-30, 01:57:04,VALID,1002.64,VALID,0,VALID,94.3006,VALID,0,VALID,24.2078,VALID,346,VALID,0,
2012-05-30, 01:58:04,VALID,1002.66,VALID,0,VALID,94.2548,VALID,0,VALID,24.2291,VALID,346,VALID,0,
2012-05-30, 01:59:04,VALID,1002.71,VALID,0,VALID,94.1785,VALID,0,VALID,24.2078,VALID,346,VALID,0,
2012-05-30, 02:00:04,VALID,1002.7,VALID,0,VALID,94.1404,VALID,0,VALID,24.2078,VALID,346,VALID,0,
2012-05-30, 02:01:04,VALID,1002.7,VALID,0,VALID,94.0336,VALID,0,VALID,24.2097,VALID,346,VALID,0,
2012-05-30, 02:02:04,VALID,1002.71,VALID,0,VALID,94.0107,VALID,0,VALID,24.1689,VALID,346,VALID,0,
2012-05-30, 02:03:04,VALID,1002.72,VALID,0,VALID,93.9878,VALID,0,VALID,24.1494,VALID,346,VALID,0,
2012-05-30, 02:04:04,VALID,1002.75,VALID,0,VALID,93.9802,VALID,0,VALID,24.1494,VALID,346,VALID,0,
2012-05-30, 02:05:04,VALID,1002.77,VALID,0,VALID,94.0107,VALID,0,VALID,24.1494,VALID,346,VALID,0,
2012-05-30, 02:06:04,VALID,1002.79,VALID,0,VALID,94.0565,VALID,0,VALID,24.1281,VALID,346,VALID,0,
2012-05-30, 02:07:04,VALID,1002.77,VALID,0,VALID,94.0641,VALID,0,VALID,24.1494,VALID,346,VALID,0,
2012-05-30, 02:08:04,VALID,1002.77,VALID,0,VALID,94.0259,VALID,0,VALID,24.13,VALID,346,VALID,0,
2012-05-30, 02:09:04,VALID,1002.78,VALID,0,VALID,93.9878,VALID,0,VALID,24.0892,VALID,346,VALID,0,
2012-05-30, 02:10:04,VALID,1002.77,VALID,0,VALID,93.9954,VALID,0,VALID,24.1123,VALID,346,VALID,0,
2012-05-30, 02:11:04,VALID,1002.75,VALID,0,VALID,94.0565,VALID,0,VALID,24.091,VALID,346,VALID,0,
2012-05-30, 02:12:04,VALID,1002.72,VALID,0,VALID,94.0794,VALID,0,VALID,24.0716,VALID,346,VALID,0,
2012-05-30, 02:13:04,VALID,1002.71,VALID,0,VALID,94.1556,VALID,0,VALID,24.0697,VALID,346,VALID,0,
2012-05-30, 02:14:04,VALID,1002.73,VALID,0,VALID,94.2243,VALID,0,VALID,24.091,VALID,346,VALID,0,
2012-05-30, 02:15:04,VALID,1002.77,VALID,0,VALID,94.209,VALID,0,VALID,24.1318,VALID,346,VALID,0,
2012-05-30, 02:16:04,VALID,1002.78,VALID,0,VALID,94.2319,VALID,0,VALID,24.1105,VALID,346,VALID,0,
2012-05-30, 02:17:04,VALID,1002.76,VALID,0,VALID,94.2396,VALID,0.0815089,VALID,24.1105,VALID,346,VALID,0,
2012-05-30, 02:18:04,VALID,1002.8,VALID,0,VALID,94.2167,VALID,0.0815089,VALID,24.13,VALID,346,VALID,0,
2012-05-30, 02:19:04,VALID,1002.84,VALID,0,VALID,94.2701,VALID,0,VALID,24.13,VALID,346,VALID,0,
2012-05-30, 02:20:04,VALID,1002.87,VALID,0,VALID,94.2624,VALID,0,VALID,24.1281,VALID,346,VALID,0,
2012-05-30, 02:21:04,VALID,1002.86,VALID,0,VALID,94.2853,VALID,0.0815089,VALID,24.1476,VALID,346,VALID,0,
2012-05-30, 02:22:04,VALID,1002.89,VALID,0,VALID,94.2396,VALID,0.0815089,VALID,24.1689,VALID,346,VALID,0,
2012-05-30, 02:23:04,VALID,1002.92,VALID,0,VALID,94.1862,VALID,0,VALID,24.1513,VALID,346,VALID,0,
2012-05-30, 02:24:04,VALID,1002.92,VALID,0,VALID,94.1404,VALID,0,VALID,24.1105,VALID,346,VALID,0,
2012-05-30, 02:25:04,VALID,1002.93,VALID,0,VALID,94.1175,VALID,0,VALID,24.091,VALID,346,VALID,0,
2012-05-30, 02:26:04,VALID,1002.93,VALID,0,VALID,94.148,VALID,0,VALID,24.1123,VALID,346,VALID,0,
2012-05-30, 02:27:04,VALID,1002.91,VALID,0,VALID,94.1938,VALID,0,VALID,24.1318,VALID,346,VALID,0,
2012-05-30, 02:28:04,VALID,1002.87,VALID,0,VALID,94.148,VALID,0,VALID,24.1105,VALID,346,VALID,0,
2012-05-30, 02:29:04,VALID,1002.86,VALID,0,VALID,94.2548,VALID,0,VALID,24.13,VALID,346,VALID,0,
2012-05-30, 02:30:04,VALID,1002.84,VALID,0,VALID,94.2472,VALID,0,VALID,24.1494,VALID,346,VALID,0,
2012-05-30, 02:31:04,VALID,1002.77,VALID,0,VALID,94.2548,VALID,0,VALID,24.13,VALID,346,VALID,0,
2012-05-30, 02:32:04,VALID,1002.73,VALID,0,VALID,94.2396,VALID,0,VALID,24.1281,VALID,346,VALID,0,
2012-05-30, 02:33:04,VALID,1002.71,VALID,0,VALID,94.293,VALID,0,VALID,24.1494,VALID,346,VALID,0,
2012-05-30, 02:34:04,VALID,1002.67,VALID,0,VALID,94.293,VALID,0,VALID,24.1884,VALID,346,VALID,0,
2012-05-30, 02:35:04,VALID,1002.63,VALID,0,VALID,94.2853,VALID,0,VALID,24.1689,VALID,346,VALID,0,
2012-05-30, 02:36:04,VALID,1002.63,VALID,0,VALID,94.2243,VALID,0,VALID,24.1689,VALID,346,VALID,0,
2012-05-30, 02:37:04,VALID,1002.61,VALID,0,VALID,94.1556,VALID,0,VALID,24.1494,VALID,346,VALID,0,
2012-05-30, 02:38:04,VALID,1002.59,VALID,0,VALID,94.148,VALID,0,VALID,24.13,VALID,346,VALID,0,
2012-05-30, 02:39:04,VALID,1002.59,VALID,0,VALID,94.1785,VALID,0,VALID,24.13,VALID,346,VALID,0,
2012-05-30, 02:40:04,VALID,1002.58,VALID,0,VALID,94.2167,VALID,0,VALID,24.1513,VALID,346,VALID,0,
2012-05-30, 02:41:04,VALID,1002.58,VALID,0,VALID,94.2472,VALID,0,VALID,24.1707,VALID,346,VALID,0,
2012-05-30, 02:42:04,VALID,1002.59,VALID,0,VALID,94.2548,VALID,0,VALID,24.1707,VALID,346,VALID,0,
2012-05-30, 02:43:04,VALID,1002.55,VALID,0,VALID,94.2624,VALID,0,VALID,24.1884,VALID,346,VALID,0,
2012-05-30, 02:44:04,VALID,1002.52,VALID,0,VALID,94.2701,VALID,0,VALID,24.1689,VALID,346,VALID,0,
2012-05-30, 02:45:04,VALID,1002.51,VALID,0,VALID,94.2777,VALID,0,VALID,24.1884,VALID,1,VALID,0,
2012-05-30, 02:46:04,VALID,1002.52,VALID,0,VALID,94.2701,VALID,0,VALID,24.1689,VALID,28,VALID,0,
2012-05-30, 02:47:04,VALID,1002.48,VALID,0,VALID,94.1862,VALID,0,VALID,24.1494,VALID,28,VALID,0,
2012-05-30, 02:48:04,VALID,1002.48,VALID,0,VALID,94.1938,VALID,0,VALID,24.1707,VALID,28,VALID,0,
2012-05-30, 02:49:04,VALID,1002.49,VALID,0,VALID,94.2167,VALID,0,VALID,24.1707,VALID,28,VALID,0,
2012-05-30, 02:50:04,VALID,1002.48,VALID,0,VALID,94.2167,VALID,0,VALID,24.13,VALID,28,VALID,0,
2012-05-30, 02:51:04,VALID,1002.49,VALID,0,VALID,94.1709,VALID,0,VALID,24.1513,VALID,28,VALID,0,
2012-05-30, 02:52:04,VALID,1002.47,VALID,0,VALID,94.1556,VALID,0,VALID,24.1105,VALID,28,VALID,0,
2012-05-30, 02:53:04,VALID,1002.43,VALID,0,VALID,94.1251,VALID,0,VALID,24.091,VALID,28,VALID,0,
2012-05-30, 02:54:04,VALID,1002.41,VALID,0,VALID,94.148,VALID,0,VALID,24.091,VALID,28,VALID,0,
2012-05-30, 02:55:04,VALID,1002.36,VALID,0,VALID,94.1099,VALID,0,VALID,24.0716,VALID,28,VALID,0,
2012-05-30, 02:56:04,VALID,1002.32,VALID,0,VALID,94.1099,VALID,0,VALID,24.0521,VALID,28,VALID,0,
2012-05-30, 02:57:04,VALID,1002.3,VALID,0,VALID,94.0488,VALID,0,VALID,24.0326,VALID,28,VALID,0,
2012-05-30, 02:58:04,VALID,1002.26,VALID,0,VALID,94.1099,VALID,0,VALID,24.0326,VALID,28,VALID,0,
2012-05-30, 02:59:04,VALID,1002.28,VALID,0,VALID,94.1785,VALID,0,VALID,24.0326,VALID,28,VALID,0,
2012-05-30, 03:00:04,VALID,1002.26,VALID,0,VALID,94.2701,VALID,0,VALID,24.0521,VALID,27,VALID,0,
2012-05-30, 03:01:04,VALID,1002.23,VALID,0,VALID,94.3006,VALID,0,VALID,24.091,VALID,18,VALID,0,
2012-05-30, 03:02:04,VALID,1002.23,VALID,0,VALID,94.3158,VALID,0,VALID,24.091,VALID,18,VALID,0,
2012-05-30, 03:03:04,VALID,1002.19,VALID,0,VALID,94.354,VALID,0,VALID,24.1105,VALID,18,VALID,0,
2012-05-30, 03:04:04,VALID,1002.19,VALID,0,VALID,94.2853,VALID,0,VALID,24.091,VALID,18,VALID,0,
2012-05-30, 03:05:04,VALID,1002.19,VALID,0,VALID,94.2624,VALID,0,VALID,24.0716,VALID,18,VALID,0,
2012-05-30, 03:06:04,VALID,1002.16,VALID,0,VALID,94.2396,VALID,0,VALID,24.0521,VALID,18,VALID,0,
2012-05-30, 03:07:04,VALID,1002.14,VALID,0,VALID,94.2548,VALID,0,VALID,24.0521,VALID,18,VALID,0,
2012-05-30, 03:08:04,VALID,1002.16,VALID,0,VALID,94.3082,VALID,0,VALID,24.0716,VALID,18,VALID,0,
2012-05-30, 03:09:04,VALID,1002.14,VALID,0,VALID,94.3464,VALID,0,VALID,24.0716,VALID,18,VALID,0,
2012-05-30, 03:10:04,VALID,1002.12,VALID,0,VALID,94.3464,VALID,0,VALID,24.0716,VALID,18,VALID,0,
2012-05-30, 03:11:04,VALID,1002.16,VALID,0,VALID,94.3692,VALID,0,VALID,24.0716,VALID,18,VALID,0,
2012-05-30, 03:12:04,VALID,1002.12,VALID,0,VALID,94.3845,VALID,0,VALID,24.091,VALID,18,VALID,0,
2012-05-30, 03:13:04,VALID,1002.16,VALID,0,VALID,94.354,VALID,0,VALID,24.0716,VALID,18,VALID,0,
2012-05-30, 03:14:04,VALID,1002.17,VALID,0,VALID,94.3998,VALID,0,VALID,24.0716,VALID,18,VALID,0,
2012-05-30, 03:15:04,VALID,1002.13,VALID,0,VALID,94.3998,VALID,0,VALID,24.1105,VALID,18,VALID,0,
2012-05-30, 03:16:04,VALID,1002.14,VALID,0,VALID,94.4227,VALID,0,VALID,24.1318,VALID,18,VALID,0,
2012-05-30, 03:17:04,VALID,1002.16,VALID,0,VALID,94.4379,VALID,0,VALID,24.13,VALID,18,VALID,0,
2012-05-30, 03:18:04,VALID,1002.19,VALID,0,VALID,94.4303,VALID,0,VALID,24.13,VALID,18,VALID,0,
2012-05-30, 03:19:04,VALID,1002.18,VALID,0,VALID,94.4303,VALID,0,VALID,24.13,VALID,18,VALID,0,
2012-05-30, 03:20:04,VALID,1002.22,VALID,0,VALID,94.4532,VALID,0,VALID,24.1494,VALID,18,VALID,0,
2012-05-30, 03:21:04,VALID,1002.22,VALID,0,VALID,94.4303,VALID,0,VALID,24.13,VALID,18,VALID,0,
2012-05-30, 03:22:04,VALID,1002.21,VALID,0,VALID,94.4303,VALID,0,VALID,24.13,VALID,18,VALID,0,
2012-05-30, 03:23:04,VALID,1002.22,VALID,0,VALID,94.4227,VALID,0,VALID,24.1318,VALID,18,VALID,0,
2012-05-30, 03:24:04,VALID,1002.22,VALID,0,VALID,94.4379,VALID,0,VALID,24.13,VALID,18,VALID,0,
2012-05-30, 03:25:04,VALID,1002.23,VALID,0,VALID,94.415,VALID,0,VALID,24.1318,VALID,18,VALID,0,
2012-05-30, 03:26:04,VALID,1002.2,VALID,0,VALID,94.3845,VALID,0,VALID,24.091,VALID,18,VALID,0,
2012-05-30, 03:27:04,VALID,1002.2,VALID,0,VALID,94.3464,VALID,0,VALID,24.0716,VALID,18,VALID,0,
2012-05-30, 03:28:04,VALID,1002.23,VALID,0,VALID,94.2777,VALID,0,VALID,24.0521,VALID,18,VALID,0,
2012-05-30, 03:29:04,VALID,1002.22,VALID,0,VALID,94.3311,VALID,0,VALID,24.0521,VALID,18,VALID,0,
2012-05-30, 03:30:04,VALID,1002.21,VALID,0,VALID,94.4074,VALID,0,VALID,24.0503,VALID,18,VALID,0,
2012-05-30, 03:31:04,VALID,1002.2,VALID,0,VALID,94.5142,VALID,0,VALID,24.13,VALID,18,VALID,0,
2012-05-30, 03:32:04,VALID,1002.19,VALID,0,VALID,94.5142,VALID,0,VALID,24.1494,VALID,18,VALID,0,
2012-05-30, 03:33:04,VALID,1002.18,VALID,0,VALID,94.4989,VALID,0,VALID,24.1707,VALID,18,VALID,0,
2012-05-30, 03:34:04,VALID,1002.16,VALID,0,VALID,94.4761,VALID,0,VALID,24.1494,VALID,18,VALID,0,
2012-05-30, 03:35:04,VALID,1002.13,VALID,0,VALID,94.4303,VALID,0,VALID,24.1707,VALID,18,VALID,0,
2012-05-30, 03:36:04,VALID,1002.13,VALID,0,VALID,94.354,VALID,0,VALID,24.1105,VALID,18,VALID,0,
2012-05-30, 03:37:04,VALID,1002.15,VALID,0,VALID,94.2853,VALID,0,VALID,24.0716,VALID,18,VALID,0,
2012-05-30, 03:38:04,VALID,1002.1,VALID,0,VALID,94.2548,VALID,0,VALID,24.0929,VALID,18,VALID,0,
2012-05-30, 03:39:04,VALID,1002.1,VALID,0,VALID,94.2167,VALID,0,VALID,24.0734,VALID,18,VALID,0,
2012-05-30, 03:40:04,VALID,1002.08,VALID,0,VALID,94.2243,VALID,0,VALID,24.0132,VALID,18,VALID,0,
2012-05-30, 03:41:04,VALID,1002.06,VALID,0,VALID,94.209,VALID,0,VALID,24.0132,VALID,18,VALID,0,
2012-05-30, 03:42:04,VALID,1002,VALID,0,VALID,94.209,VALID,0.0815089,VALID,24.015,VALID,18,VALID,0,
2012-05-30, 03:43:04,VALID,1002,VALID,0,VALID,94.2014,VALID,0,VALID,23.9742,VALID,18,VALID,0,
2012-05-30, 03:44:04,VALID,1001.96,VALID,0,VALID,94.2624,VALID,0,VALID,23.9955,VALID,18,VALID,0,
2012-05-30, 03:45:04,VALID,1001.97,VALID,0,VALID,94.2701,VALID,0,VALID,23.9937,VALID,18,VALID,0,
2012-05-30, 03:46:04,VALID,1001.93,VALID,0,VALID,94.293,VALID,0,VALID,23.9937,VALID,18,VALID,0,
2012-05-30, 03:47:04,VALID,1001.96,VALID,0,VALID,94.3387,VALID,0,VALID,23.9937,VALID,18,VALID,0,
2012-05-30, 03:48:04,VALID,1001.98,VALID,0,VALID,94.3692,VALID,0,VALID,23.9937,VALID,18,VALID,0,
2012-05-30, 03:49:04,VALID,1001.97,VALID,0,VALID,94.3845,VALID,0.0815089,VALID,24.0132,VALID,18,VALID,0,
2012-05-30, 03:50:04,VALID,1001.97,VALID,0,VALID,94.3616,VALID,0.0815089,VALID,24.0132,VALID,18,VALID,0,
2012-05-30, 03:51:04,VALID,1001.98,VALID,0,VALID,94.2853,VALID,0,VALID,23.9761,VALID,18,VALID,0,
2012-05-30, 03:52:04,VALID,1001.96,VALID,0,VALID,94.2396,VALID,0,VALID,23.9159,VALID,18,VALID,0,
2012-05-30, 03:53:04,VALID,1001.96,VALID,0,VALID,94.2472,VALID,0,VALID,23.8964,VALID,18,VALID,0,
2012-05-30, 03:54:04,VALID,1002,VALID,0,VALID,94.2853,VALID,0.0815089,VALID,23.8964,VALID,18,VALID,0,
2012-05-30, 03:55:04,VALID,1001.97,VALID,0,VALID,94.2853,VALID,0,VALID,23.8964,VALID,18,VALID,0,
2012-05-30, 03:56:04,VALID,1001.97,VALID,0,VALID,94.2624,VALID,0.0815089,VALID,23.8769,VALID,18,VALID,0,
2012-05-30, 03:57:04,VALID,1001.97,VALID,0,VALID,94.3006,VALID,0.0815089,VALID,23.8362,VALID,18,VALID,0,
2012-05-30, 03:58:04,VALID,1001.97,VALID,0,VALID,94.3845,VALID,0,VALID,23.8751,VALID,18,VALID,0,